Estación Meteorológica de la Universidad de Murcia
Estación Meteorológica de la Universidad de Murcia
Universidad de Murcia
 

Temperatura ambienteTemperatura ambiente

 

Máxima: 34,5 ºC a las 15:19:00 del día 19/06/2019
Mínima: 17,9 ºC a las 06:56:00 del día 19/06/2019

||Temperatura máxima últimos meses|| ---- ||Temperatura mínima últimos meses||


Temperatura máxima

  • 1 - 34,5 ºC del día 19/06/2019
  • 2 - 32,3 ºC del día 18/06/2019
  • 3 - 32,6 ºC del día 17/06/2019
  • 4 - 27,2 ºC del día 16/06/2019
  • 5 - 31,7 ºC del día 15/06/2019
  • 6 - 31,1 ºC del día 14/06/2019
  • 7 - 27,1 ºC del día 13/06/2019
  • 8 - 25,9 ºC del día 12/06/2019
  • 9 - 29,5 ºC del día 11/06/2019
  • 10 - 31,7 ºC del día 10/06/2019
  • 11 - 31,3 ºC del día 09/06/2019
  • 12 - 27,2 ºC del día 08/06/2019
  • 13 - 31 ºC del día 07/06/2019
  • 14 - 28,5 ºC del día 06/06/2019
  • 15 - 28,7 ºC del día 05/06/2019
  • 16 - 33,1 ºC del día 04/06/2019
  • 17 - 32,1 ºC del día 03/06/2019
  • 18 - 30,5 ºC del día 02/06/2019
  • 19 - 28,8 ºC del día 01/06/2019
  • 20 - 27,1 ºC del día 31/05/2019
  • 21 - 27,1 ºC del día 30/05/2019
  • 22 - 25,3 ºC del día 29/05/2019
  • 23 - 28,2 ºC del día 28/05/2019
  • 24 - 31,3 ºC del día 27/05/2019
  • 25 - 27,3 ºC del día 26/05/2019
  • 26 - 23,8 ºC del día 25/05/2019
  • 27 - 25,6 ºC del día 24/05/2019
  • 28 - 31,2 ºC del día 23/05/2019
  • 29 - 28,9 ºC del día 22/05/2019
  • 30 - 26,1 ºC del día 21/05/2019
  • 31 - 26,3 ºC del día 20/05/2019
  • 32 - 25,5 ºC del día 19/05/2019
  • 33 - 23,7 ºC del día 18/05/2019
  • 34 - 25,3 ºC del día 17/05/2019
  • 35 - 26,2 ºC del día 16/05/2019
  • 36 - 33 ºC del día 15/05/2019
  • 37 - 26,5 ºC del día 14/05/2019
  • 38 - 25,9 ºC del día 13/05/2019
  • 39 - 26,8 ºC del día 12/05/2019
  • 40 - 31,7 ºC del día 11/05/2019
  • 41 - 32,1 ºC del día 10/05/2019
  • 42 - 29,4 ºC del día 09/05/2019
  • 43 - 30,6 ºC del día 08/05/2019
  • 44 - 28,8 ºC del día 07/05/2019
  • 45 - 26,5 ºC del día 06/05/2019
  • 46 - 24,4 ºC del día 05/05/2019
  • 47 - 25,3 ºC del día 04/05/2019
  • 48 - 23,8 ºC del día 03/05/2019
  • 49 - 24,6 ºC del día 02/05/2019
  • 50 - 25,1 ºC del día 01/05/2019
  • 51 - 24,8 ºC del día 30/04/2019
  • 52 - 23,6 ºC del día 29/04/2019
  • 53 - 25,5 ºC del día 28/04/2019
  • 54 - 24,8 ºC del día 27/04/2019
  • 55 - 24,2 ºC del día 26/04/2019
  • 56 - 23,6 ºC del día 25/04/2019
  • 57 - 21,6 ºC del día 24/04/2019
  • 58 - 21,1 ºC del día 23/04/2019
  • 59 - 19,1 ºC del día 22/04/2019
  • 60 - 15,8 ºC del día 21/04/2019

||Volver al inicio de la página||


Temperatura mínima

  • 1 - 17,9 ºC del día 19/06/2019
  • 2 - 16,4 ºC del día 18/06/2019
  • 3 - 15,4 ºC del día 17/06/2019
  • 4 - 16,4 ºC del día 16/06/2019
  • 5 - 20,5 ºC del día 15/06/2019
  • 6 - 19,1 ºC del día 14/06/2019
  • 7 - 19,2 ºC del día 13/06/2019
  • 8 - 15,7 ºC del día 12/06/2019
  • 9 - 16,1 ºC del día 11/06/2019
  • 10 - 17,3 ºC del día 10/06/2019
  • 11 - 18,5 ºC del día 09/06/2019
  • 12 - 16,7 ºC del día 08/06/2019
  • 13 - 16,2 ºC del día 07/06/2019
  • 14 - 14,6 ºC del día 06/06/2019
  • 15 - 16,9 ºC del día 05/06/2019
  • 16 - 15,9 ºC del día 04/06/2019
  • 17 - 14,9 ºC del día 03/06/2019
  • 18 - 13,9 ºC del día 02/06/2019
  • 19 - 13,9 ºC del día 01/06/2019
  • 20 - 13,8 ºC del día 31/05/2019
  • 21 - 13,9 ºC del día 30/05/2019
  • 22 - 16,1 ºC del día 29/05/2019
  • 23 - 18 ºC del día 28/05/2019
  • 24 - 14,5 ºC del día 27/05/2019
  • 25 - 13,4 ºC del día 26/05/2019
  • 26 - 13,3 ºC del día 25/05/2019
  • 27 - 15 ºC del día 24/05/2019
  • 28 - 15 ºC del día 23/05/2019
  • 29 - 13,2 ºC del día 22/05/2019
  • 30 - 15,7 ºC del día 21/05/2019
  • 31 - 13,3 ºC del día 20/05/2019
  • 32 - 13,1 ºC del día 19/05/2019
  • 33 - 13,4 ºC del día 18/05/2019
  • 34 - 16,4 ºC del día 17/05/2019
  • 35 - 17,1 ºC del día 16/05/2019
  • 36 - 13,2 ºC del día 15/05/2019
  • 37 - 12,3 ºC del día 14/05/2019
  • 38 - 14,6 ºC del día 13/05/2019
  • 39 - 17,5 ºC del día 12/05/2019
  • 40 - 18,2 ºC del día 11/05/2019
  • 41 - 17,6 ºC del día 10/05/2019
  • 42 - 20,6 ºC del día 09/05/2019
  • 43 - 14,8 ºC del día 08/05/2019
  • 44 - 16,1 ºC del día 07/05/2019
  • 45 - 12,9 ºC del día 06/05/2019
  • 46 - 12,7 ºC del día 05/05/2019
  • 47 - 11,4 ºC del día 04/05/2019
  • 48 - 12,4 ºC del día 03/05/2019
  • 49 - 12,9 ºC del día 02/05/2019
  • 50 - 12,5 ºC del día 01/05/2019
  • 51 - 12,9 ºC del día 30/04/2019
  • 52 - 11,1 ºC del día 29/04/2019
  • 53 - 11,1 ºC del día 28/04/2019
  • 54 - 10,5 ºC del día 27/04/2019
  • 55 - 10 ºC del día 26/04/2019
  • 56 - 11,5 ºC del día 25/04/2019
  • 57 - 8,7 ºC del día 24/04/2019
  • 58 - 12 ºC del día 23/04/2019
  • 59 - 11,3 ºC del día 22/04/2019
  • 60 - 12,2 ºC del día 21/04/2019

 

|| Humedad relativa|| Velocidad y dirección del viento|| Precipitación|| Radiación Solar Global y PAR|| Temperatura y humedad del suelo|| Presión atmosférica|| Más información|| Volver a la página principal|| Volver al inicio de la página||


Estación Meteorológica de la Universidad de Murcia
http://estacion.um.es/
Informacion actualizada a: 20/06/2019 a las 00:55:00